Bowling Green, KY

5:12 AM CDT on April 25, 2017 (GMT -0500)
Bowling Green-Warren County Regional

Weather History for KBWG - March, 2011

Change the Weather History Date:

Monday, March 7, 2011

  Actual Average Record
Temperature  
Mean Temperature 43 °F 46 °F  
Max Temperature 49 °F 57 °F 81 °F (1921)
Min Temperature 36 °F 35 °F 2 °F (1899)
Degree Days  
Heating Degree Days 22 20  
Month to date heating degree days 118 143  
Since 1 July heating degree days 3444 3341  
Cooling Degree Days 0 0  
Month to date cooling degree days 0 0  
Year to date cooling degree days 0 0  
Moisture  
Dew Point 30 °F    
Average Humidity 66    
Maximum Humidity 82    
Minimum Humidity 50    
Precipitation  
Precipitation 0.00 in 0.14 in 1.70 in (1995)
Month to date precipitation 1.63 0.95  
Year to date precipitation 9.76 8.52  
Snow  
Snow 0.00 in 0.00 in 2.00 in (2008)
Month to date snowfall 0.0 0.2  
Since 1 July snowfall 21.2 8.0  
Snow Depth 0.00 in    
Sea Level Pressure  
Sea Level Pressure 30.18 in    
Wind  
Wind Speed 6 mph (ENE)    
Max Wind Speed 15 mph    
Max Gust Speed 18 mph    
Visibility 10 miles    
Events      
T = Trace of Precipitation, MM = Missing Value Source: NWS Daily Summary

Daily Weather History Graph

Daily Weather History Graph

Search for Another Location

Airport or City:

Trip Planner

Search our weather history database for the weather conditions in past years. The results will help you decide how hot, cold, wet, or windy it might be!

Date:

Astronomy

Mar. 07, 2011 Rise Set
Actual Time 6:08 AM CST 5:45 PM CST
Civil Twilight 5:42 AM CST 6:11 PM CST
Nautical Twilight 5:12 AM CST 6:41 PM CST
Astronomical Twilight 4:42 AM CST 7:11 PM CST
Moon 7:03 AM CST (3/7) 8:39 PM CST (3/7)
Length of Visible Light 12h 28m
Length of Day
11h 36m
Waxing Crescent, 7% of the Moon is Illuminated
Mar 7
Waxing Crescent
Mar 12
First Quarter
Mar 19
Full
Mar 26
Last Quarter
Apr 3
New

Hourly Weather History & Observations

Time (CST) Temp. Windchill Dew Point Humidity Pressure Visibility Wind Dir Wind Speed Gust Speed Precip Events Conditions
12:53 AM 37.9 °F 35.5 °F 32.0 °F 79% 30.20 in 10.0 mi NNE 3.5 mph - N/A   Overcast
1:53 AM 37.9 °F 34.4 °F 32.0 °F 79% 30.18 in 10.0 mi NNE 4.6 mph - N/A   Overcast
2:53 AM 37.0 °F 32.4 °F 32.0 °F 82% 30.18 in 10.0 mi NE 5.8 mph - N/A   Overcast
3:53 AM 36.0 °F 31.1 °F 30.0 °F 79% 30.19 in 10.0 mi NE 5.8 mph - N/A   Overcast
4:03 AM 35.6 °F 31.7 °F 30.2 °F 81% 30.18 in 10.0 mi ENE 4.6 mph - N/A   Overcast
4:53 AM 36.0 °F 32.1 °F 30.0 °F 79% 30.19 in 10.0 mi ENE 4.6 mph - N/A   Overcast
5:53 AM 36.0 °F 32.1 °F 30.0 °F 79% 30.20 in 10.0 mi ENE 4.6 mph - N/A   Overcast
6:53 AM 37.0 °F 32.4 °F 30.9 °F 79% 30.22 in 9.0 mi ENE 5.8 mph - N/A   Overcast
7:53 AM 39.0 °F 31.8 °F 30.0 °F 70% 30.23 in 10.0 mi East 11.5 mph - N/A   Overcast
8:53 AM 39.9 °F 32.5 °F 30.0 °F 68% 30.24 in 10.0 mi East 12.7 mph - N/A   Mostly Cloudy
9:06 AM 41.0 °F 34.3 °F 30.2 °F 65% 30.23 in 10.0 mi East 11.5 mph - N/A   Scattered Clouds
9:53 AM 41.0 °F 34.7 °F 30.9 °F 67% 30.24 in 10.0 mi ENE 10.4 mph - N/A   Clear
10:53 AM 44.1 °F 38.1 °F 30.9 °F 60% 30.23 in 10.0 mi ENE 11.5 mph 17.3 mph N/A   Clear
11:53 AM 45.0 °F 40.1 °F 30.9 °F 58% 30.20 in 10.0 mi East 9.2 mph - N/A   Clear
12:53 PM 46.0 °F 44.8 °F 30.0 °F 54% 30.19 in 10.0 mi Variable 3.5 mph - N/A   Clear
1:53 PM 46.9 °F - 30.9 °F 54% 30.17 in 10.0 mi ENE 6.9 mph - N/A   Clear
2:53 PM 48.0 °F - 30.9 °F 52% 30.17 in 10.0 mi ENE 8.1 mph - N/A   Clear
3:53 PM 48.9 °F - 30.9 °F 50% 30.15 in 10.0 mi East 9.2 mph - N/A   Clear
4:53 PM 46.9 °F - 30.9 °F 54% 30.15 in 10.0 mi East 8.1 mph - N/A   Clear
5:53 PM 46.0 °F 41.9 °F 30.0 °F 54% 30.15 in 10.0 mi East 8.1 mph - N/A   Clear
6:53 PM 45.0 °F 40.6 °F 28.9 °F 53% 30.14 in 10.0 mi East 8.1 mph - N/A   Clear
7:53 PM 39.9 °F 36.7 °F 28.9 °F 65% 30.14 in 10.0 mi East 4.6 mph - N/A   Clear
8:53 PM 41.0 °F - 28.9 °F 62% 30.15 in 10.0 mi Calm Calm - N/A   Clear
9:53 PM 39.0 °F 36.8 °F 28.9 °F 67% 30.15 in 10.0 mi East 3.5 mph - N/A   Clear
10:53 PM 39.9 °F - 28.9 °F 65% 30.14 in 10.0 mi Calm Calm - N/A   Clear
11:53 PM 39.0 °F - 30.0 °F 70% 30.15 in 10.0 mi Calm Calm - N/A   Clear